CHINASAT 2A (ZX 2A)

Last updated on Oct. 23, 2020, 5:56 a.m. UTC

1 38352U 12028A   20296.73799610 -.00000307  00000-0  00000+0 0  9995
2 38352   0.0410 299.5761 0002952  17.9582  78.0603  1.00271187 30955
UTC
Height (km)
Latitude
Longitude
Inclination
Orbital Period
UTC large
Height (km)
Speed (km/s)
/
Latitude / Longitude
Inclination (degrees)
Orbital Period (minutes)
Azimuth
Elevation
Range (km)
Doppler Factor
iOS Compass Heading
iOS Angle

Next 30 passes for location: Hong Kong

Rise time Rise Azimuth (degrees) Set time Set Azimuth (degrees) Duration Max altitude (degrees)

No matching passes for this satellites